contact:dominique.lefevre@mio.osupytheas.fr, maurice.libes@osupytheas.fr
Project:EMSO Ligure-ouest http://www.emso-fr.org/EMSO-France
Sensor Aquadopp, line 04 Serial AQD8517 
DOI : "https://doi.org/10.17882/74513; https://doi.org/10.17882/83244" 
Title:EMSO Ligure Ouest : Data ligne ALBATROSS capteur AQUADOPP - deploiement 2021
Id,Date,Profondeur,Latitude,Longitude,X_East,Y_North,Z_Up,Amplitude_X,Amplitude_Y,Amplitude_Z,Batterie,SoundSpeed,Heading,Pitch,Roll,Pressure,Temperature,Speed,Direction
, , m, degrees North, degrees East, m.s-1, m.s-1,m.s-1, 1, 1, 1, Volt, m.s-1, degree, degree, degree, dbar, degree_C, m.s-1, degree
01,2022-05-26T21:30:00,500.0,42.79,6.0312,-0.039,-0.053,0.001,65.0,57.0,58.0,11.8,1506.3,233.4,-0.1,0.6,451.956,13.8,0.065,216.3
01,2022-05-26T22:00:00,500.0,42.79,6.0312,-0.048,-0.051,0.0,63.0,59.0,62.0,11.8,1506.3,233.4,-0.1,0.7,451.943,13.8,0.07,223.3
01,2022-05-26T22:30:00,500.0,42.79,6.0312,-0.027,-0.062,-0.003,63.0,59.0,58.0,11.8,1506.3,211.5,-0.2,0.6,451.928,13.8,0.067,203.5
01,2022-05-26T23:00:00,500.0,42.79,6.0312,-0.013,-0.074,0.0,65.0,58.0,59.0,11.8,1506.3,206.0,-0.2,0.7,451.892,13.8,0.075,190.0
01,2022-05-26T23:30:00,500.0,42.79,6.0312,-0.058,-0.047,0.005,65.0,59.0,60.0,11.8,1506.3,241.0,0.0,0.6,451.931,13.8,0.074,231.0
01,2022-05-27T00:00:00,500.0,42.79,6.0312,-0.054,-0.07,0.007,64.0,60.0,60.0,11.8,1506.3,229.6,0.0,0.5,451.88,13.8,0.088,217.7
01,2022-05-27T00:30:00,500.0,42.79,6.0312,-0.058,-0.05,-0.008,64.0,60.0,58.0,11.8,1506.3,239.1,-0.1,0.7,451.869,13.8,0.076,229.2
01,2022-05-27T01:00:00,500.0,42.79,6.0312,-0.056,-0.05,-0.002,64.0,59.0,63.0,11.8,1506.3,237.5,-0.2,0.6,451.887,13.8,0.075,228.2
01,2022-05-27T01:30:00,500.0,42.79,6.0312,-0.066,-0.034,0.008,65.0,60.0,58.0,11.8,1506.3,251.6,-0.4,0.7,451.872,13.8,0.074,242.7
01,2022-05-27T02:00:00,500.0,42.79,6.0312,-0.07,-0.049,0.018,64.0,61.0,60.0,11.8,1506.2,251.2,-0.2,0.7,451.944,13.78,0.085,235.0
01,2022-05-27T02:30:00,500.0,42.79,6.0312,-0.06,-0.053,0.014,62.0,58.0,60.0,11.8,1506.2,233.7,-0.1,0.7,451.992,13.78,0.08,228.5
01,2022-05-27T03:00:00,500.0,42.79,6.0312,-0.048,-0.075,0.001,64.0,60.0,61.0,11.8,1506.2,221.0,-0.1,0.6,451.958,13.77,0.089,212.6
01,2022-05-27T03:30:00,500.0,42.79,6.0312,-0.07,-0.041,-0.008,64.0,59.0,59.0,11.8,1506.2,248.8,0.0,0.7,451.979,13.79,0.081,239.6
01,2022-05-27T04:00:00,500.0,42.79,6.0312,-0.062,-0.073,-0.004,67.0,61.0,61.0,11.8,1506.3,237.1,-0.5,0.6,451.982,13.8,0.095,220.3
01,2022-05-27T04:30:00,500.0,42.79,6.0312,-0.053,-0.066,0.011,65.0,60.0,59.0,11.8,1506.3,236.3,-0.1,0.5,451.994,13.8,0.084,218.8
01,2022-05-27T05:00:00,500.0,42.79,6.0312,-0.064,-0.044,-0.015,64.0,58.0,59.0,11.8,1506.2,254.7,-0.1,0.6,452.033,13.79,0.077,235.5
01,2022-05-27T05:30:00,500.0,42.79,6.0312,-0.09,-0.031,-0.008,64.0,59.0,59.0,11.8,1506.3,266.2,-0.4,0.7,452.012,13.8,0.095,251.0
01,2022-05-27T06:00:00,500.0,42.79,6.0312,-0.082,-0.033,0.018,64.0,59.0,59.0,11.8,1506.2,256.0,0.0,0.6,452.061,13.78,0.088,248.1
01,2022-05-27T06:30:00,500.0,42.79,6.0312,-0.066,-0.028,0.003,63.0,60.0,58.0,11.8,1506.2,258.7,-0.3,0.7,452.015,13.77,0.071,247.0
01,2022-05-27T07:00:00,500.0,42.79,6.0312,-0.049,-0.049,0.005,64.0,59.0,60.0,11.8,1506.2,236.9,-0.1,0.5,451.996,13.77,0.069,225.0
01,2022-05-27T07:30:00,500.0,42.79,6.0312,-0.079,-0.036,0.002,64.0,57.0,57.0,11.8,1506.2,260.1,-0.2,0.7,451.967,13.77,0.086,245.5
01,2022-05-27T08:00:00,500.0,42.79,6.0312,-0.09,-0.041,-0.001,64.0,58.0,57.0,11.8,1506.2,261.2,-0.5,0.8,451.974,13.77,0.098,245.5
01,2022-05-27T08:30:00,500.0,42.79,6.0312,-0.066,-0.034,0.005,61.0,57.0,57.0,11.8,1506.2,254.7,-0.1,0.6,451.9,13.78,0.074,242.7
01,2022-05-27T09:00:00,500.0,42.79,6.0312,-0.075,-0.02,-0.016,62.0,58.0,57.0,11.8,1506.2,259.1,-0.3,0.7,451.872,13.79,0.077,255.1
01,2022-05-27T09:30:00,500.0,42.79,6.0312,-0.055,-0.043,0.001,63.0,57.0,57.0,11.8,1506.2,244.8,-0.1,0.7,451.844,13.78,0.069,232.0
01,2022-05-27T10:00:00,500.0,42.79,6.0312,-0.048,-0.044,0.007,62.0,60.0,58.0,11.8,1506.2,244.4,-0.1,0.7,451.871,13.78,0.065,227.5
01,2022-05-27T10:30:00,500.0,42.79,6.0312,-0.059,-0.032,-0.001,62.0,57.0,57.0,11.8,1506.3,260.8,-0.3,0.7,451.815,13.8,0.067,241.5
01,2022-05-27T11:00:00,500.0,42.79,6.0312,-0.051,-0.014,0.011,63.0,58.0,59.0,11.8,1506.3,270.3,-0.3,0.7,451.778,13.8,0.052,254.7
01,2022-05-27T11:30:00,500.0,42.79,6.0312,-0.028,-0.037,0.001,63.0,57.0,59.0,11.8,1506.2,244.1,-0.1,0.7,451.76,13.79,0.046,217.1
01,2022-05-27T12:00:00,500.0,42.79,6.0312,-0.032,-0.036,0.016,62.0,57.0,56.0,11.8,1506.2,249.2,-0.1,0.6,451.811,13.79,0.048,221.6
01,2022-05-27T12:30:00,500.0,42.79,6.0312,-0.026,-0.039,0.016,60.0,55.0,54.0,11.8,1506.2,251.0,-0.1,0.6,451.788,13.79,0.046,213.7
01,2022-05-27T13:00:00,500.0,42.79,6.0312,-0.031,-0.051,0.005,62.0,58.0,57.0,11.8,1506.2,232.5,-0.1,0.6,451.804,13.79,0.059,211.3
01,2022-05-27T13:30:00,500.0,42.79,6.0312,-0.032,-0.059,0.004,64.0,58.0,58.0,11.8,1506.2,235.9,-0.2,0.6,451.786,13.78,0.067,208.5
01,2022-05-27T14:00:00,500.0,42.79,6.0312,-0.037,-0.042,0.015,60.0,60.0,58.0,11.8,1506.1,230.7,-0.2,0.6,451.793,13.76,0.055,221.4
01,2022-05-27T14:30:00,500.0,42.79,6.0312,-0.032,-0.043,0.01,61.0,57.0,58.0,11.8,1506.1,227.8,-0.2,0.6,451.846,13.76,0.053,216.7
01,2022-05-27T15:00:00,500.0,42.79,6.0312,-0.021,-0.042,0.003,64.0,59.0,59.0,11.8,1506.1,219.4,-0.3,0.7,451.912,13.76,0.046,206.6
01,2022-05-27T15:30:00,500.0,42.79,6.0312,-0.025,-0.052,0.004,61.0,57.0,56.0,11.8,1506.2,215.7,-0.3,0.8,451.938,13.78,0.057,205.7
01,2022-05-27T16:00:00,500.0,42.79,6.0312,-0.028,-0.063,0.008,60.0,57.0,57.0,11.8,1506.2,218.5,-0.2,0.6,451.868,13.79,0.068,204.0
01,2022-05-27T16:30:00,500.0,42.79,6.0312,-0.004,-0.065,0.022,62.0,56.0,59.0,11.8,1506.1,212.8,-0.2,0.6,451.936,13.76,0.065,183.5
01,2022-05-27T17:00:00,500.0,42.79,6.0312,-0.024,-0.074,0.001,61.0,58.0,57.0,11.8,1506.1,217.7,-0.1,0.6,451.915,13.76,0.077,198.0
01,2022-05-27T17:30:00,500.0,42.79,6.0312,-0.04,-0.063,0.011,61.0,57.0,56.0,11.8,1506.1,235.4,-0.2,0.6,451.984,13.76,0.074,212.4
01,2022-05-27T18:00:00,500.0,42.79,6.0312,-0.048,-0.07,0.015,61.0,57.0,57.0,11.8,1506.1,240.3,0.2,0.6,451.959,13.76,0.084,214.4
01,2022-05-27T18:30:00,500.0,42.79,6.0312,-0.023,-0.085,0.009,61.0,57.0,57.0,11.8,1506.1,214.2,-0.5,0.7,451.977,13.76,0.088,195.1
01,2022-05-27T19:00:00,500.0,42.79,6.0312,-0.039,-0.077,0.012,61.0,56.0,59.0,11.8,1506.2,227.7,-0.1,0.6,451.965,13.77,0.086,206.9
01,2022-05-27T19:30:00,500.0,42.79,6.0312,-0.044,-0.079,0.01,62.0,57.0,55.0,11.8,1506.2,228.4,-0.2,0.5,451.959,13.77,0.09,209.1
01,2022-05-27T20:00:00,500.0,42.79,6.0312,-0.083,-0.036,0.006,61.0,56.0,56.0,11.8,1506.2,260.4,-0.2,0.8,451.927,13.78,0.09,246.6
01,2022-05-27T20:30:00,500.0,42.79,6.0312,-0.013,-0.094,0.016,62.0,56.0,58.0,11.8,1506.2,203.4,-0.3,0.5,451.946,13.78,0.094,187.9
01,2022-05-27T21:00:00,500.0,42.79,6.0312,-0.014,-0.091,0.0,61.0,57.0,58.0,11.8,1506.2,206.4,-0.5,0.6,451.916,13.78,0.092,188.7
